OE5XFR Weather Reports


time (UTC)temp
C
wind
direction
speed
KPH
gust
KPH
rain 1hr
cm
rain 24hr
cm
rain mn
cm
humidity
%
barometer
mb
20260906022814 14 289 8.0 8.0 0.00 0.66 0.66 98 1027.0
20260906021614 14 271 4.8 9.7 0.00 0.66 0.66 98 1027.0
20260906020414 14 279 8.0 9.7 0.00 0.66 0.66 98 1027.0
20260906015214 14 252 8.0 9.7 0.00 0.66 0.66 98 1027.0
20260906014014 14 252 8.0 9.7 0.00 0.66 0.66 98 1027.0
20260906012814 14 262 6.4 8.0 0.00 0.66 0.66 97 1027.0
20260906011615 14 261 4.8 8.0 0.00 0.66 0.66 97 1027.0
20260906010414 15 239 6.4 8.0 0.00 0.64 0.64 96 1027.0
20260906005214 15 280 4.8 8.0 0.00 0.64 0.64 96 1027.0
20260906004014 15 296 4.8 6.4 0.00 0.64 0.64 96 1027.0
20260906002814 15 284 4.8 9.7 0.00 0.64 0.64 96 1027.0
20260906001614 16 268 9.7 11.3 0.00 0.64 0.64 97 1027.0
20260906000414 16 268 9.7 11.3 0.00 0.64 0.64 97 1027.0
20260905235213 16 303 6.4 9.7 0.00 0.64 0.64 97 1026.0
20260905234014 16 272 8.0 8.0 0.00 0.64 0.64 97 1026.0
20260905232814 16 263 6.4 9.7 0.00 0.64 0.64 97 1027.0
20260905231614 16 270 8.0 9.7 0.00 0.64 0.64 97 1026.0
20260905230413 16 278 8.0 9.7 0.00 0.64 0.64 97 1026.0
20260905225213 16 258 9.7 9.7 0.00 0.64 0.64 97 1026.0
20260905224013 16 249 9.7 11.3 0.00 0.64 0.64 97 1026.0
20260905222813 16 251 8.0 11.3 0.00 0.64 0.64 96 1026.0
20260905221613 16 251 8.0 11.3 0.00 0.64 0.64 96 1026.0
20260905220414 17 254 11.3 12.9 0.03 0.64 0.64 96 1026.0
20260905215213 17 249 9.7 17.7 0.00 0.61 0.61 96 1026.0
20260905214013 17 249 9.7 17.7 0.00 0.61 0.61 96 1026.0
20260905212813 17 264 16.1 20.9 0.00 0.61 0.61 95 1026.0
20260905211613 17 264 24.1 32.2 0.00 0.61 0.61 91 1026.0
20260905210413 17 264 24.1 32.2 0.00 0.61 0.61 91 1026.0
20260905205213 18 313 11.3 22.5 0.00 0.18 0.18 74 1025.0
20260905204013 18 300 11.3 11.3 0.00 0.18 0.18 72 1025.0
20260905202813 18 298 8.0 9.7 0.00 0.18 0.18 72 1025.0
20260905201613 17 276 9.7 11.3 0.00 0.18 0.18 69 1025.0
20260905200413 17 276 9.7 11.3 0.00 0.18 0.18 69 1025.0
20260905195213 17 275 11.3 11.3 0.00 0.18 0.18 66 1025.0
20260905194013 17 275 11.3 11.3 0.00 0.18 0.18 66 1025.0
20260905192813 18 268 9.7 12.9 0.00 0.18 0.18 62 1025.0
20260905191613 18 284 9.7 11.3 0.00 0.18 0.18 60 1025.0
20260905190413 18 273 11.3 12.9 0.00 0.18 0.18 59 1025.0
20260905185213 18 269 9.7 16.1 0.00 0.18 0.18 56 1025.0
20260905184013 18 269 9.7 16.1 0.00 0.18 0.18 56 1025.0
20260905182814 18 289 11.3 16.1 0.00 0.18 0.18 53 1024.0
20260905181613 18 273 12.9 19.3 0.00 0.18 0.18 51 1024.0
20260905180413 18 273 12.9 19.3 0.00 0.18 0.18 51 1024.0
20260905175213 20 246 12.9 19.3 0.00 0.18 0.18 48 1024.0
20260905174013 20 258 14.5 22.5 0.00 0.18 0.18 48 1024.0
20260905172813 20 251 12.9 19.3 0.00 0.18 0.18 47 1024.0
20260905171613 20 262 11.3 24.1 0.00 0.18 0.18 47 1024.0
20260905170413 20 262 11.3 24.1 0.00 0.18 0.18 47 1024.0
20260905165213 20 259 17.7 22.5 0.00 0.18 0.18 48 1024.0
20260905164014 20 253 17.7 27.4 0.00 0.18 0.18 47 1024.0
20260905162813 20 239 22.5 33.8 0.00 0.18 0.18 46 1024.0
20260905161613 20 225 25.7 40.2 0.00 0.18 0.18 45 1024.0
20260905160414 20 230 29.0 33.8 0.00 0.18 0.18 48 1024.0
20260905155214 20 245 22.5 32.2 0.00 0.18 0.18 50 1024.0
20260905154014 20 245 22.5 32.2 0.00 0.18 0.18 50 1024.0
20260905152814 20 252 29.0 35.4 0.00 0.18 0.18 53 1024.0
20260905151613 20 252 27.4 33.8 0.00 0.18 0.18 54 1024.0
20260905150414 20 242 35.4 40.2 0.00 0.18 0.18 57 1024.0
20260905145214 20 257 22.5 35.4 0.00 0.18 0.18 57 1024.0
20260905144013 20 256 19.3 38.6 0.00 0.18 0.18 56 1024.0
20260905142813 20 245 22.5 38.6 0.00 0.18 0.18 55 1024.0
20260905141612 20 239 19.3 40.2 0.00 0.18 0.18 53 1024.0
20260905140412 20 239 19.3 40.2 0.00 0.18 0.18 53 1024.0
20260905135212 19 250 22.5 32.2 0.00 0.18 0.18 58 1024.0
20260905134012 19 249 29.0 35.4 0.00 0.18 0.18 58 1024.0
20260905132812 19 239 19.3 32.2 0.00 0.18 0.18 57 1024.0
20260905131612 19 258 25.7 32.2 0.00 0.18 0.18 57 1024.0
20260905130414 19 258 25.7 32.2 0.00 0.18 0.18 57 1024.0
20260905125214 19 270 20.9 27.4 0.00 0.18 0.18 59 1024.0
20260905124012 19 270 20.9 27.4 0.00 0.18 0.18 59 1024.0
20260905122813 19 241 16.1 24.1 0.00 0.18 0.18 59 1024.0
20260905121612 19 255 14.5 20.9 0.00 0.18 0.18 58 1024.0
20260905120412 18 260 22.5 25.7 0.00 0.18 0.18 60 1024.0
20260905115212 18 238 14.5 24.1 0.00 0.18 0.18 64 1024.0
20260905114013 18 238 14.5 24.1 0.00 0.18 0.18 64 1024.0
20260905112813 18 266 16.1 20.9 0.00 0.18 0.18 58 1024.0
20260905111613 18 239 14.5 19.3 0.00 0.18 0.18 58 1024.0
20260905110414 18 239 14.5 19.3 0.00 0.18 0.18 58 1024.0
20260905105213 18 270 14.5 16.1 0.00 0.18 0.18 62 1024.0
20260905104013 18 268 11.3 17.7 0.00 0.18 0.18 64 1024.0
20260905101613 18 234 8.0 12.9 0.00 0.18 0.18 71 1024.0
20260905100413 18 234 8.0 12.9 0.00 0.18 0.18 71 1024.0
20260905095213 17 229 9.7 17.7 0.00 0.18 0.18 79 1023.0
20260905094014 17 216 14.5 16.1 0.00 0.18 0.18 85 1024.0
20260905092814 16 211 11.3 12.9 0.00 0.18 0.18 91 1024.0
20260905091614 16 220 9.7 9.7 0.00 0.18 0.18 92 1024.0
20260905090414 15 185 4.8 9.7 0.00 0.18 0.18 93 1024.0
20260905085213 15 234 8.0 12.9 0.00 0.18 0.18 94 1024.0
20260905084013 15 234 8.0 12.9 0.00 0.18 0.18 94 1024.0
20260905082814 15 224 6.4 14.5 0.00 0.18 0.18 94 1024.0
20260905081613 15 231 8.0 9.7 0.00 0.18 0.18 94 1024.0
20260905080413 15 231 8.0 9.7 0.00 0.18 0.18 94 1024.0
20260905075213 14 212 4.8 8.0 0.08 0.15 0.15 94 1024.0
20260905074014 14 207 6.4 9.7 0.08 0.15 0.15 93 1024.0
20260905072813 14 214 6.4 8.0 0.08 0.15 0.15 92 1023.0
20260905071613 15 240 6.4 11.3 0.00 0.08 0.08 91 1024.0
20260905070413 15 240 6.4 11.3 0.00 0.08 0.08 91 1024.0
20260905065213 16 247 11.3 14.5 0.00 0.05 0.05 68 1024.0
20260905064013 17 320 14.5 22.5 0.00 0.05 0.00 58 1024.0
20260905062813 17 302 19.3 20.9 0.00 0.05 0.05 53 1023.0
20260905061613 17 295 14.5 20.9 0.00 0.05 0.05 51 1023.0
20260905060413 18 354 12.9 25.7 0.00 0.05 0.05 48 1023.0
20260905055213 18 287 11.3 29.0 0.00 0.05 0.05 49 1021.0
20260905054013 18 287 11.3 29.0 0.00 0.05 0.05 49 1021.0
20260905052812 18 301 17.7 24.1 0.00 0.05 0.05 51 1021.0
20260905051612 19 353 12.9 12.9 0.00 0.05 0.05 53 1021.0
20260905050412 19 11 12.9 24.1 0.00 0.05 0.05 52 1021.0
20260905045213 20 5 14.5 22.5 0.05 0.05 0.05 56 1020.0
20260905044013 20 296 12.9 24.1 0.03 0.03 0.03 59 1020.0
20260905042812 20 286 9.7 29.0 0.03 0.03 0.03 59 1020.0
20260905041613 20 255 9.7 11.3 0.00 0.00 0.00 62 1019.0
20260905040412 20 255 9.7 11.3 0.00 0.00 0.00 62 1019.0
20260905035212 21 266 8.0 11.3 0.00 0.00 0.00 61 1019.0
20260905034012 21 267 8.0 9.7 0.00 0.00 0.00 60 1018.0
20260905032813 21 244 11.3 19.3 0.00 0.00 0.00 60 1019.0
20260905031612 21 249 6.4 12.9 0.00 0.00 0.00 58 1018.0
20260905030412 21 249 6.4 12.9 0.00 0.00 0.00 58 1018.0
20260905025212 21 248 16.1 14.5 0.00 0.00 0.00 55 1019.0
20260905024012 21 248 16.1 14.5 0.00 0.00 0.00 55 1019.0